| time (UTC) | temp C | wind direction | speed KPH | gust KPH | rain 1hr cm | rain 24hr cm | rain mn cm | humidity % | barometer mb |
| 20260507080049 | 10 | 63 | 8.0 | 17.7 | 0.00 | 0.05 | 0.00 | 80 | 1015.6 |
| 20260507074550 | 10 | 72 | 8.0 | 12.9 | 0.00 | 0.05 | 0.00 | 82 | 1015.7 |
| 20260507073043 | 10 | 27 | 6.4 | 11.3 | 0.00 | 0.05 | 0.00 | 82 | 1015.6 |
| 20260507071542 | 9 | 20 | 6.4 | 14.5 | 0.00 | 0.05 | 0.00 | 83 | 1015.7 |
| 20260507070041 | 9 | 30 | 8.0 | 12.9 | 0.00 | 0.05 | 0.00 | 83 | 1015.6 |
| 20260507064551 | 9 | 40 | 8.0 | 12.9 | 0.00 | 0.05 | 0.00 | 84 | 1015.5 |
| 20260507063045 | 8 | 15 | 8.0 | 14.5 | 0.00 | 0.05 | 0.00 | 84 | 1015.4 |
| 20260507061554 | 8 | 13 | 6.4 | 12.9 | 0.00 | 0.05 | 0.00 | 85 | 1015.3 |
| 20260507060058 | 8 | 22 | 4.8 | 12.9 | 0.00 | 0.05 | 0.00 | 86 | 1015.1 |
| 20260507054543 | 8 | 30 | 4.8 | 12.9 | 0.00 | 0.05 | 0.00 | 86 | 1015.0 |
| 20260507053047 | 8 | 25 | 6.4 | 11.3 | 0.00 | 0.05 | 0.00 | 86 | 1014.9 |
| 20260507051549 | 8 | 18 | 6.4 | 12.9 | 0.00 | 0.05 | 0.00 | 86 | 1014.9 |
| 20260507050045 | 8 | 347 | 4.8 | 11.3 | 0.00 | 0.05 | 0.00 | 86 | 1014.9 |
| 20260507044604 | 8 | 360 | 4.8 | 9.7 | 0.00 | 0.05 | 0.00 | 86 | 1014.7 |
| 20260507043059 | 8 | 359 | 4.8 | 8.0 | 0.00 | 0.05 | 0.00 | 86 | 1014.6 |
| 20260507041543 | 8 | 4 | 4.8 | 11.3 | 0.00 | 0.05 | 0.00 | 86 | 1014.6 |
| 20260507040051 | 8 | 1 | 4.8 | 11.3 | 0.00 | 0.05 | 0.00 | 86 | 1014.5 |
| 20260507034544 | 8 | 3 | 4.8 | 9.7 | 0.00 | 0.05 | 0.00 | 86 | 1014.5 |
| 20260507033044 | 8 | 13 | 3.2 | 9.7 | 0.00 | 0.05 | 0.00 | 85 | 1014.5 |
| 20260507031548 | 8 | 33 | 6.4 | 12.9 | 0.00 | 0.05 | 0.00 | 85 | 1014.5 |
| 20260507030042 | 8 | 352 | 1.6 | 6.4 | 0.00 | 0.05 | 0.00 | 84 | 1014.5 |
| 20260507024553 | 8 | 3 | 3.2 | 8.0 | 0.00 | 0.05 | 0.00 | 84 | 1014.5 |
| 20260507023104 | 8 | 5 | 1.6 | 8.0 | 0.00 | 0.05 | 0.00 | 84 | 1014.5 |
| 20260507021551 | 8 | 7 | 3.2 | 11.3 | 0.00 | 0.05 | 0.00 | 83 | 1014.4 |
| 20260507020058 | 8 | 28 | 6.4 | 11.3 | 0.00 | 0.05 | 0.00 | 83 | 1014.3 |
| 20260507014546 | 8 | 25 | 6.4 | 11.3 | 0.00 | 0.05 | 0.00 | 84 | 1014.3 |
| 20260507013042 | 8 | 38 | 6.4 | 11.3 | 0.00 | 0.05 | 0.00 | 84 | 1014.3 |
| 20260507011548 | 8 | 22 | 6.4 | 16.1 | 0.00 | 0.05 | 0.00 | 84 | 1014.3 |
| 20260507010047 | 8 | 13 | 6.4 | 12.9 | 0.00 | 0.05 | 0.00 | 83 | 1014.4 |
| 20260507004544 | 8 | 21 | 6.4 | 12.9 | 0.00 | 0.05 | 0.00 | 83 | 1014.3 |
| 20260507003056 | 8 | 45 | 6.4 | 14.5 | 0.00 | 0.05 | 0.00 | 83 | 1014.2 |
| 20260507001610 | 8 | 23 | 8.0 | 12.9 | 0.00 | 0.05 | 0.00 | 83 | 1014.3 |
| 20260507000051 | 8 | 1 | 3.2 | 8.0 | 0.00 | 0.05 | 0.00 | 83 | 1014.4 |
| 20260506234554 | 9 | 7 | 3.2 | 8.0 | 0.00 | 0.05 | 0.00 | 83 | 1014.3 |
| 20260506233047 | 9 | 5 | 3.2 | 8.0 | 0.00 | 0.05 | 0.00 | 83 | 1014.3 |
| 20260506231554 | 9 | 340 | 1.6 | 8.0 | 0.00 | 0.05 | 0.00 | 83 | 1014.4 |
| 20260506230055 | 9 | 13 | 3.2 | 8.0 | 0.00 | 0.05 | 0.00 | 83 | 1014.3 |
| 20260506224543 | 9 | 27 | 4.8 | 8.0 | 0.00 | 0.05 | 0.05 | 83 | 1014.3 |
| 20260506223040 | 9 | 25 | 3.2 | 8.0 | 0.00 | 0.05 | 0.05 | 83 | 1014.3 |
| 20260506221546 | 9 | 20 | 4.8 | 11.3 | 0.00 | 0.05 | 0.05 | 84 | 1014.2 |
| 20260506220049 | 9 | 35 | 3.2 | 8.0 | 0.00 | 0.05 | 0.05 | 84 | 1014.0 |
| 20260506214543 | 9 | 46 | 4.8 | 11.3 | 0.00 | 0.05 | 0.05 | 85 | 1013.9 |
| 20260506213040 | 9 | 12 | 3.2 | 8.0 | 0.00 | 0.05 | 0.05 | 85 | 1013.9 |
| 20260506211542 | 9 | 27 | 6.4 | 11.3 | 0.00 | 0.05 | 0.05 | 84 | 1013.8 |
| 20260506210051 | 9 | 38 | 3.2 | 8.0 | 0.00 | 0.05 | 0.05 | 84 | 1013.9 |
| 20260506204546 | 9 | 31 | 1.6 | 8.0 | 0.00 | 0.05 | 0.05 | 84 | 1013.7 |
| 20260506203045 | 9 | 30 | 4.8 | 8.0 | 0.00 | 0.05 | 0.05 | 84 | 1013.6 |
| 20260506201540 | 9 | 39 | 6.4 | 12.9 | 0.00 | 0.05 | 0.05 | 84 | 1013.5 |
| 20260506200042 | 10 | 53 | 11.3 | 14.5 | 0.00 | 0.05 | 0.05 | 83 | 1013.5 |
| 20260506194541 | 10 | 72 | 11.3 | 19.3 | 0.00 | 0.05 | 0.05 | 82 | 1013.3 |
| 20260506193043 | 10 | 56 | 11.3 | 20.9 | 0.00 | 0.05 | 0.05 | 78 | 1013.1 |
| 20260506191546 | 10 | 347 | 0.0 | 3.2 | 0.00 | 0.05 | 0.05 | 76 | 1013.0 |
| 20260506190049 | 10 | 0 | 0.0 | 0.0 | 0.00 | 0.05 | 0.05 | 76 | 1012.8 |
| 20260506184545 | 10 | 18 | 0.0 | 3.2 | 0.00 | 0.05 | 0.05 | 76 | 1012.8 |
| 20260506183044 | 10 | 36 | 3.2 | 6.4 | 0.00 | 0.05 | 0.05 | 76 | 1012.7 |
| 20260506181554 | 10 | 32 | 6.4 | 8.0 | 0.00 | 0.05 | 0.05 | 77 | 1012.6 |
| 20260506180053 | 10 | 58 | 6.4 | 11.3 | 0.00 | 0.05 | 0.05 | 77 | 1012.5 |
| 20260506174544 | 10 | 24 | 3.2 | 6.4 | 0.00 | 0.05 | 0.05 | 78 | 1012.3 |
| 20260506173046 | 10 | 31 | 1.6 | 4.8 | 0.00 | 0.05 | 0.05 | 78 | 1012.2 |
| 20260506171541 | 10 | 20 | 3.2 | 14.5 | 0.00 | 0.05 | 0.05 | 78 | 1012.2 |
| 20260506170047 | 11 | 51 | 6.4 | 11.3 | 0.00 | 0.05 | 0.05 | 78 | 1012.2 |
| 20260506164555 | 11 | 18 | 3.2 | 14.5 | 0.00 | 0.05 | 0.05 | 76 | 1012.1 |
| 20260506163050 | 11 | 19 | 4.8 | 12.9 | 0.00 | 0.05 | 0.05 | 75 | 1012.2 |
| 20260506161546 | 11 | 347 | 4.8 | 11.3 | 0.00 | 0.05 | 0.05 | 77 | 1012.1 |
| 20260506160052 | 11 | 43 | 1.6 | 12.9 | 0.00 | 0.05 | 0.05 | 77 | 1012.1 |
| 20260506154547 | 11 | 29 | 8.0 | 14.5 | 0.03 | 0.05 | 0.05 | 76 | 1012.1 |
| 20260506153044 | 11 | 11 | 3.2 | 8.0 | 0.03 | 0.03 | 0.03 | 78 | 1012.1 |
| 20260506151540 | 10 | 0 | 0.0 | 6.4 | 0.03 | 0.03 | 0.03 | 80 | 1012.1 |
| 20260506150059 | 10 | 8 | 4.8 | 14.5 | 0.03 | 0.03 | 0.03 | 78 | 1012.1 |
| 20260506144544 | 10 | 20 | 1.6 | 11.3 | 0.00 | 0.00 | 0.00 | 82 | 1012.1 |
| 20260506143046 | 10 | 57 | 9.7 | 17.7 | 0.00 | 0.00 | 0.00 | 83 | 1011.9 |
| 20260506141549 | 11 | 31 | 12.9 | 19.3 | 0.00 | 0.00 | 0.00 | 80 | 1011.9 |
| 20260506140048 | 11 | 70 | 14.5 | 20.9 | 0.00 | 0.00 | 0.00 | 71 | 1011.9 |
| 20260506134544 | 12 | 341 | 4.8 | 14.5 | 0.00 | 0.00 | 0.00 | 67 | 1011.9 |
| 20260506133056 | 11 | 332 | 4.8 | 16.1 | 0.00 | 0.00 | 0.00 | 69 | 1011.8 |
| 20260506131542 | 11 | 338 | 4.8 | 19.3 | 0.00 | 0.00 | 0.00 | 73 | 1011.9 |
| 20260506130046 | 11 | 326 | 6.4 | 19.3 | 0.00 | 0.00 | 0.00 | 73 | 1011.9 |
| 20260506124548 | 11 | 285 | 9.7 | 19.3 | 0.00 | 0.00 | 0.00 | 71 | 1012.0 |
| 20260506123049 | 11 | 313 | 6.4 | 20.9 | 0.00 | 0.00 | 0.00 | 69 | 1011.7 |
| 20260506121554 | 11 | 286 | 9.7 | 20.9 | 0.00 | 0.00 | 0.00 | 70 | 1011.8 |
| 20260506120101 | 11 | 331 | 6.4 | 17.7 | 0.00 | 0.00 | 0.00 | 68 | 1011.7 |
| 20260506114541 | 11 | 326 | 8.0 | 20.9 | 0.00 | 0.00 | 0.00 | 69 | 1011.7 |
| 20260506113040 | 11 | 335 | 14.5 | 25.7 | 0.00 | 0.00 | 0.00 | 68 | 1011.7 |
| 20260506111550 | 12 | 328 | 11.3 | 22.5 | 0.00 | 0.00 | 0.00 | 64 | 1011.5 |
| 20260506110056 | 12 | 325 | 9.7 | 17.7 | 0.00 | 0.00 | 0.00 | 63 | 1011.6 |
| 20260506104556 | 12 | 20 | 9.7 | 22.5 | 0.00 | 0.00 | 0.00 | 64 | 1011.6 |
| 20260506103045 | 11 | 325 | 12.9 | 25.7 | 0.00 | 0.00 | 0.00 | 66 | 1011.6 |
| 20260506101545 | 11 | 314 | 9.7 | 24.1 | 0.00 | 0.00 | 0.00 | 67 | 1011.6 |
| 20260506100053 | 11 | 323 | 6.4 | 24.1 | 0.00 | 0.00 | 0.00 | 69 | 1011.6 |
| 20260506094545 | 11 | 325 | 11.3 | 22.5 | 0.00 | 0.00 | 0.00 | 70 | 1011.7 |
| 20260506093046 | 10 | 314 | 12.9 | 20.9 | 0.00 | 0.00 | 0.00 | 70 | 1011.7 |
| 20260506091546 | 10 | 277 | 12.9 | 27.4 | 0.00 | 0.00 | 0.00 | 71 | 1011.6 |
| 20260506090045 | 10 | 306 | 16.1 | 27.4 | 0.00 | 0.00 | 0.00 | 73 | 1011.4 |
| 20260506084614 | 10 | 318 | 14.5 | 27.4 | 0.00 | 0.00 | 0.00 | 73 | 1011.2 |
| 20260506083045 | 10 | 297 | 12.9 | 20.9 | 0.00 | 0.00 | 0.00 | 76 | 1011.4 |
| 20260506081555 | 10 | 327 | 8.0 | 20.9 | 0.00 | 0.00 | 0.00 | 76 | 1011.5 |